Location: Newark
(32.9833°N, 70.6000°E)
Time: 21:26:27
(UTC+00:00)

N. Korean satellite - Visible Passes

Search period start: 09 April 2020 00:00
Search period end: 19 April 2020 00:00
Orbit: 454 x 507 km, 97.2° (Epoch: 09 April)

Date Brightness Start Highest point End Pass type
(mag) Time Alt. Az. Time Alt. Az. Time Alt. Az.
09 Apr 9.5 00:16:27 10° NE 00:19:02 20° E 00:21:37 10° SE visible
13 Apr 9.6 00:07:46 10° ENE 00:09:51 15° E 00:11:56 10° SE visible
16 Apr 9.9 23:59:24 10° ENE 00:00:39 12° E 00:01:54 10° ESE visible
